[[{"header":{"parameterUnit":"m.s-1","parameterCategory":1,"la1":30.2991,"la2":30.254,"lo1":-89.0895,"lo2":-89.0444,"dy":0.0017,"dx":0.0017,"nx":28,"ny":28,"refTime":"2025-08-29T09:00:00:Z","depth":0,"parameterNumber":2,"parameterNumberName":"U-component_of_WINDS"},"data":[0,0,0,0,0,0,0,0,0,0,0,0,0,0,0,0,0,0,0,0,0,0,0,0,0,0,0,0,0,0,0,0,0,0,0,0,0,0,0,0,0,0,0,0,0,0,0,0,0,0,0,0,0,0,0,0,0,0,-0.0138,-0.0137,0,-0.0113,-0.0113,-0.0113,-0.0197,-0.02,-0.0202,-0.0205,-0.0169,-0.0166,-0.0163,0,0,0,0,0,0,0,0,0,0,0,0,0,-0.0245,-0.0243,-0.0138,-0.0137,-0.0137,-0.0114,-0.0113,-0.0113,-0.0197,-0.02,-0.0203,-0.0206,-0.017,-0.0166,-0.0162,0,0,0,0,0,0,0,0,0,0,0,0,0,-0.0207,-0.0242,-0.0138,-0.0176,-0.018,-0.0114,-0.0113,-0.0113,-0.0196,-0.02,-0.0204,-0.0207,-0.0172,-0.0167,-0.0162,-0.0054,0,0,-0.0147,-0.0144,0,0,0,0,0,0,0,0,-0.0209,-0.0203,-0.0171,-0.0174,-0.0177,-0.0163,-0.0138,-0.0093,-0.0195,-0.0189,-0.0205,-0.0209,-0.0163,-0.0159,-0.0146,-0.0053,-0.0051,-0.0146,-0.0143,-0.0141,-0.014,0,0,0,0,0,0,0,-0.0212,-0.0205,-0.0128,-0.017,-0.0174,-0.0191,-0.019,-0.013,-0.0155,-0.019,-0.0196,-0.0193,-0.0166,-0.015,-0.0146,-0.0051,-0.0146,-0.0142,-0.0139,-0.0137,0.0138,0.0143,0,0,0,0,0,0,-0.0211,-0.0206,-0.0129,-0.0127,-0.0203,-0.0186,-0.0185,-0.0163,-0.0156,-0.0158,-0.019,-0.0197,-0.0157,-0.0151,-0.0145,-0.0014,-0.0141,-0.0136,-0.0134,0.0134,0.0139,0.0144,0,0,0,0,0,0,-0.0213,-0.0203,-0.013,-0.0168,-0.016,-0.018,-0.0155,-0.0161,-0.0146,-0.0155,-0.0159,-0.017,-0.016,-0.0152,-0.0076,-0.0014,-0.0134,-0.013,0.0129,0.0136,0.0142,0.0247,0,0,0,0,0,0,-0.0216,-0.0203,-0.0165,-0.0167,-0.0158,-0.0064,-0.0152,-0.0157,-0.0138,-0.0147,-0.0138,-0.014,-0.0162,-0.0082,-0.007,-0.0009,-0.0126,0.0124,0.0132,0.014,0.0238,0.0256,0.0272,0,0,0,0,0,-0.0219,-0.0136,-0.0163,-0.0153,-0.0112,-0.0061,-0.0055,-0.0085,-0.0133,-0.0092,-0.0098,-0.0141,-0.0024,-0.0074,-0.0061,0.0003,0.012,0.013,0.0139,0.023,0.0253,0.0271,0,0,0,0,0,0,-0.0123,-0.0137,-0.0167,-0.0083,-0.007,-0.0075,-0.0025,-0.0061,-0.0032,-0.0041,-0.0077,-0.0074,0.0011,0.0013,-0.0043,0.011,0.0041,0.0053,0.0106,0.0127,0.0143,0.0143,-0.0122,0,0,0,0,0,-0.0093,-0.0054,-0.0067,0.001,0.0017,-0.0005,0.0016,-0.0008,0.0005,0.0011,0.001,0.0028,0.0069,0.0097,0.0134,0.0236,0.0241,0.0287,0.0304,0.0318,0.0331,0.0392,0.0414,0.0176,0.0176,0.0176,0,0,-0.0028,-0.0031,-0.0003,0.0029,0.0036,0.0082,0.0,0.0051,0.0086,0.002,0.0092,0.0093,0.011,0.0201,0.0242,0.0207,0.0398,0.033,0.0342,0.0347,0.0404,0.0427,0.0447,0.0183,0.0181,0.018,0,0,0.0114,0.0113,0.0179,0.0187,0.0197,0.0182,0.0198,0.0199,0.0196,0.0267,0.0219,0.0262,0.0332,0.0348,0.0366,0.0516,0.048,0.0529,0.0619,0.0678,0.0697,0.0714,0.0773,0.0794,0.0541,0.0541,0.0541,0,0.0194,0.0257,0.0218,0.0272,0.0291,0.0229,0.0298,0.0309,0.0333,0.0349,0.0308,0.0397,0.0404,0.0501,0.0538,0.0552,0.0574,0.0529,0.0697,0.0713,0.0728,0.0785,0.0807,0.0547,0.0546,0.0546,0.0545,0,0.0358,0.0403,0.0455,0.0477,0.05,0.0562,0.0537,0.0566,0.054,0.0531,0.0607,0.0613,0.0653,0.0673,0.0648,0.0768,0.0747,0.0702,0.0632,0.0758,0.0811,0.0831,0.0556,0.0554,0.0552,0.055,0,0,0.0564,0.0563,0.0583,0.0594,0.0601,0.0638,0.0699,0.0734,0.0763,0.0781,0.0836,0.0897,0.0856,0.0876,0.0853,0.0904,0.103,0.0854,0.0854,0.0892,0.117,0.1208,0.1233,0.1004,0.1008,0.1011,0.117,0,0.0708,0.0808,0.0776,0.088,0.0924,0.0867,0.092,0.0934,0.0927,0.0967,0.096,0.1007,0.0946,0.0959,0.1007,0.1005,0.1087,0.0992,0.1061,0.1064,0.1064,0.1259,0.1299,0.1449,0.119,0.1193,0.1196,0,0.089,0.0913,0.1021,0.1024,0.1042,0.109,0.1122,0.1158,0.1174,0.1166,0.1189,0.1156,0.1222,0.1148,0.1241,0.1178,0.1204,0.1208,0.1213,0.1223,0.1142,0.1281,0.1495,0.152,0.1227,0.1224,0.1222,0,0.1037,0.1095,0.1168,0.1179,0.1182,0.1219,0.1223,0.1233,0.1258,0.1287,0.1304,0.1341,0.1363,0.1395,0.1376,0.1322,0.1475,0.1398,0.1476,0.1477,0.1515,0.1514,0.1743,0.1522,0.1522,0.1521,0.1521,0,0.1204,0.1274,0.1235,0.1281,0.1359,0.1321,0.1402,0.14,0.141,0.1459,0.141,0.1458,0.1426,0.1473,0.1458,0.1541,0.155,0.155,0.1547,0.1558,0.1559,0.1579,0.157,0.1527,0.1526,0.1525,0.1524,0,0.1384,0.1359,0.1436,0.1432,0.1433,0.1492,0.1491,0.1536,0.1525,0.1587,0.16,0.1585,0.1637,0.1619,0.1676,0.1666,0.1774,0.1754,0.1769,0.1766,0.1847,0.1843,0.2102,0.2137,0.1888,0.189,0.1892,0,0.1495,0.1547,0.1549,0.1576,0.1582,0.1626,0.1651,0.1617,0.1645,0.1668,0.1712,0.1759,0.1796,0.1883,0.1881,0.1925,0.191,0.1997,0.1917,0.1928,0.1919,0.1919,0.1927,0.2016,0.2019,0.2021,0.2023,0,0.1698,0.1683,0.1718,0.175,0.1779,0.1804,0.1824,0.185,0.1818,0.1853,0.1904,0.1932,0.1989,0.204,0.208,0.2089,0.2055,0.2047,0.2069,0.2085,0.2094,0.2097,0.1819,0.2043,0.2041,0.204,0.2039,0.2038,0.1851,0.1897,0.1905,0.1947,0.1958,0.1979,0.2022,0.2015,0.2056,0.2098,0.2076,0.2137,0.2156,0.2206,0.222,0.2272,0.2239,0.2268,0.2277,0.2287,0.2301,0.208,0.2278,0.2278,0.2277,0.2277,0.2276,0,0.2057,0.2059,0.2097,0.2127,0.2161,0.2117,0.2139,0.2172,0.2225,0.2243,0.2279,0.2341,0.239,0.2391,0.2438,0.2479,0.2465,0.2494,0.2494,0.2498,0.2324,0.2303,0.2505,0.2505,0.2505,0.2505,0.2505,0.2505,0.2169,0.2245,0.2232,0.2315,0.2318,0.2374,0.2391,0.2412,0.2426,0.2496,0.2535,0.2533,0.2547,0.2594,0.264,0.2639,0.2662,0.2699,0.2693,0.2532,0.2509,0.2488,0.2469,0.2702,0.2702,0.2864,0.2865,0.2866]},{"header":{"parameterUnit":"m.s-1","parameterCategory":1,"la1":30.2991,"la2":30.254,"lo1":-89.0895,"lo2":-89.0444,"dy":0.0017,"dx":0.0017,"nx":28,"ny":28,"refTime":"2025-08-29T09:00:00:Z","depth":0,"parameterNumber":3,"parameterNumberName":"V-component_of_WINDS"},"data":[0,0,0,0,0,0,0,0,0,0,0,0,0,0,0,0,0,0,0,0,0,0,0,0,0,0,0,0,0,0,0,0,0,0,0,0,0,0,0,0,0,0,0,0,0,0,0,0,0,0,0,0,0,0,0,0,0,0,-2.6492,-2.6494,0,-2.6683,-2.6685,-2.6687,-2.6767,-2.6767,-2.6766,-2.6766,-2.6958,-2.6963,-2.6968,0,0,0,0,0,0,0,0,0,0,0,0,0,-2.6191,-2.6196,-2.6491,-2.6494,-2.6496,-2.6683,-2.6685,-2.6688,-2.6767,-2.6767,-2.6766,-2.6766,-2.6956,-2.6962,-2.6969,0,0,0,0,0,0,0,0,0,0,0,0,0,-2.6346,-2.6198,-2.6491,-2.6558,-2.6566,-2.6682,-2.6685,-2.6689,-2.6767,-2.6767,-2.6766,-2.6766,-2.6954,-2.6962,-2.697,-2.7031,0,0,-2.6995,-2.6998,0,0,0,0,0,0,0,0,-2.6337,-2.6357,-2.6546,-2.6554,-2.6563,-2.6701,-2.665,-2.6803,-2.6767,-2.6691,-2.6766,-2.6765,-2.6872,-2.6887,-2.6924,-2.704,-2.7048,-2.6995,-2.7,-2.7004,-2.7006,0,0,0,0,0,0,0,-2.6326,-2.6349,-2.6567,-2.6549,-2.6559,-2.6578,-2.6599,-2.6679,-2.6782,-2.6697,-2.6704,-2.6726,-2.6877,-2.6916,-2.6929,-2.7051,-2.6995,-2.7002,-2.7007,-2.7011,-2.7227,-2.7228,0,0,0,0,0,0,-2.6305,-2.6339,-2.6561,-2.6573,-2.6446,-2.6584,-2.6608,-2.6657,-2.6782,-2.68,-2.6726,-2.6729,-2.6902,-2.6919,-2.6936,-2.7017,-2.7004,-2.7011,-2.7016,-2.7226,-2.7227,-2.7228,0,0,0,0,0,0,-2.6298,-2.6324,-2.6553,-2.6458,-2.6489,-2.659,-2.6644,-2.6661,-2.6701,-2.6803,-2.6821,-2.6747,-2.6903,-2.6925,-2.7007,-2.7024,-2.7015,-2.7022,-2.7225,-2.7226,-2.7228,-2.7178,0,0,0,0,0,0,-2.6289,-2.6321,-2.6346,-2.6458,-2.6493,-2.6622,-2.6645,-2.6665,-2.6715,-2.672,-2.6828,-2.6845,-2.6904,-2.6995,-2.7015,-2.7035,-2.7029,-2.7224,-2.7226,-2.7227,-2.7178,-2.7177,-2.7176,0,0,0,0,0,-2.6278,-2.6324,-2.6347,-2.6373,-2.6527,-2.6623,-2.6643,-2.6711,-2.6716,-2.6742,-2.6808,-2.6842,-2.7019,-2.7002,-2.7026,-2.7049,-2.7223,-2.7225,-2.7227,-2.7179,-2.7177,-2.7176,0,0,0,0,0,0,-2.621,-2.634,-2.6367,-2.645,-2.6525,-2.6637,-2.6671,-2.6707,-2.6781,-2.6783,-2.6863,-2.6886,-2.6962,-2.7014,-2.6993,-2.7115,-2.7124,-2.7131,-2.7079,-2.7078,-2.7077,-2.7063,-2.7036,0,0,0,0,0,-2.6205,-2.6273,-2.6382,-2.6445,-2.6481,-2.6569,-2.6614,-2.6659,-2.674,-2.6771,-2.6843,-2.6919,-2.6992,-2.7038,-2.711,-2.7186,-2.721,-2.7213,-2.7212,-2.7211,-2.7216,-2.7259,-2.7262,-2.7234,-2.7234,-2.7234,0,0,-2.6194,-2.6274,-2.6312,-2.6433,-2.6497,-2.6564,-2.6596,-2.6666,-2.6717,-2.6782,-2.6865,-2.692,-2.7009,-2.7088,-2.7127,-2.7134,-2.7229,-2.7213,-2.7211,-2.7217,-2.7261,-2.7264,-2.7266,-2.7236,-2.7235,-2.7235,0,0,-2.621,-2.6277,-2.6337,-2.6401,-2.6497,-2.6555,-2.6569,-2.6676,-2.6715,-2.68,-2.685,-2.6911,-2.7034,-2.7096,-2.7143,-2.7182,-2.7217,-2.7204,-2.7198,-2.7239,-2.7242,-2.7244,-2.7258,-2.7262,-2.7208,-2.7208,-2.7208,0,-2.6185,-2.6291,-2.6363,-2.6431,-2.6483,-2.6546,-2.6607,-2.6664,-2.6778,-2.6812,-2.6818,-2.6975,-2.704,-2.7134,-2.7144,-2.718,-2.7198,-2.7192,-2.7236,-2.7239,-2.7242,-2.7256,-2.7261,-2.7206,-2.7206,-2.7206,-2.7207,0,-2.6255,-2.6327,-2.6363,-2.6474,-2.653,-2.6593,-2.6674,-2.6722,-2.6762,-2.682,-2.6904,-2.6984,-2.7074,-2.71,-2.7139,-2.72,-2.7201,-2.7221,-2.7231,-2.7241,-2.7256,-2.7262,-2.7203,-2.7204,-2.7204,-2.7205,0,0,-2.6233,-2.6383,-2.6396,-2.6446,-2.6557,-2.6614,-2.668,-2.6769,-2.6808,-2.6884,-2.6941,-2.7045,-2.7063,-2.7117,-2.7164,-2.7201,-2.7226,-2.7216,-2.7219,-2.7215,-2.7297,-2.7282,-2.7287,-2.7249,-2.7251,-2.7252,-2.729,0,-2.6264,-2.6388,-2.6455,-2.6549,-2.6616,-2.6677,-2.6735,-2.6808,-2.6863,-2.6927,-2.6987,-2.7059,-2.7078,-2.7111,-2.715,-2.7215,-2.7244,-2.7213,-2.7302,-2.7304,-2.7278,-2.7295,-2.7279,-2.7311,-2.7296,-2.7297,-2.7298,0,-2.6317,-2.6394,-2.6495,-2.6599,-2.6629,-2.668,-2.6767,-2.6828,-2.6912,-2.6949,-2.7009,-2.7056,-2.7127,-2.7132,-2.723,-2.7207,-2.7247,-2.7284,-2.7287,-2.7298,-2.7302,-2.7306,-2.7323,-2.7328,-2.7307,-2.7306,-2.7306,0,-2.6291,-2.642,-2.6498,-2.6539,-2.6661,-2.6696,-2.6748,-2.6832,-2.6881,-2.6956,-2.6989,-2.7071,-2.7116,-2.7177,-2.7245,-2.7242,-2.7336,-2.7346,-2.7368,-2.7366,-2.7385,-2.7383,-2.7409,-2.741,-2.741,-2.741,-2.741,0,-2.6319,-2.6379,-2.6488,-2.6535,-2.6604,-2.668,-2.6744,-2.6801,-2.6875,-2.6934,-2.6991,-2.7044,-2.713,-2.7193,-2.7246,-2.7319,-2.7338,-2.737,-2.7383,-2.7365,-2.7361,-2.7393,-2.7392,-2.7412,-2.7411,-2.7411,-2.7411,0,-2.6302,-2.6378,-2.6466,-2.6575,-2.6604,-2.6649,-2.6742,-2.6789,-2.6847,-2.6921,-2.6942,-2.7033,-2.7111,-2.7184,-2.7287,-2.7323,-2.7396,-2.7413,-2.7368,-2.7375,-2.7393,-2.739,-2.744,-2.7451,-2.7444,-2.7444,-2.7444,0,-2.6315,-2.6363,-2.6477,-2.6521,-2.6573,-2.6643,-2.6694,-2.677,-2.682,-2.6919,-2.6955,-2.7037,-2.7108,-2.7229,-2.7303,-2.7382,-2.7401,-2.7413,-2.7414,-2.7394,-2.7402,-2.7398,-2.7403,-2.7412,-2.7412,-2.7411,-2.7411,0,-2.633,-2.6365,-2.6437,-2.6523,-2.6582,-2.6653,-2.6725,-2.6757,-2.6847,-2.69,-2.6982,-2.7036,-2.7142,-2.7223,-2.7311,-2.7363,-2.7402,-2.741,-2.742,-2.7402,-2.7374,-2.7389,-2.7364,-2.7409,-2.7409,-2.7409,-2.741,-2.741,-2.6329,-2.6374,-2.6461,-2.654,-2.6602,-2.6668,-2.6719,-2.6784,-2.6853,-2.6947,-2.6987,-2.7069,-2.7151,-2.7273,-2.7325,-2.7389,-2.7398,-2.7411,-2.7414,-2.7417,-2.7413,-2.7363,-2.7405,-2.7405,-2.7405,-2.7406,-2.7406,0,-2.6347,-2.6406,-2.6478,-2.6578,-2.6639,-2.6671,-2.6753,-2.6801,-2.6874,-2.6948,-2.7016,-2.7109,-2.7187,-2.7267,-2.735,-2.7386,-2.7406,-2.7405,-2.7403,-2.7414,-2.7401,-2.7384,-2.7388,-2.7388,-2.7388,-2.7388,-2.7388,-2.7388,-2.6363,-2.6442,-2.6487,-2.6596,-2.6655,-2.6737,-2.6781,-2.6842,-2.6901,-2.7003,-2.7069,-2.7122,-2.7198,-2.7286,-2.7359,-2.7381,-2.7408,-2.7403,-2.7429,-2.7414,-2.7415,-2.7416,-2.7402,-2.7408,-2.7408,-2.7438,-2.7438,-2.7438]}]]